contact:dominique.lefevre@mio.osupytheas.fr, maurice.libes@osupytheas.fr, didier.mallarino@osupytheas.fr
Project:EMSO http://www.emso-fr.org/EMSO-France
Depth: 2436.0 m
Title:EMSO Ligure Ouest : Data MII capteur AQUADOPP
Date,Latitude,Longitude,X_East,Y_North,Z_Up,Amplitude_X,Amplitude_Y,Amplitude_Z,Batterie,SoundSpeed,Heading,Pitch,Roll,Pressure,TIS,Speed,Direction
, degrees North, degrees East, m.s-1, m.s-1,m.s-1, 1, 1, 1, Volt, m.s-1, degree, degree, degree, dbar, degree_C, m.s-1, degree
2019-10-24T00:04:04,42.805,6.029,0.056,-0.002,-0.001,99.0,104.0,99.0,13.4,1505.1,328.5,-0.8,1.8,2470.503,13.27,0.056,92.0
2019-10-24T00:07:05,42.805,6.029,0.023,-0.014,-0.009,101.0,104.0,99.0,13.4,1505.2,326.0,-0.8,1.8,2470.444,13.29,0.026,121.3
2019-10-24T00:10:06,42.805,6.029,0.084,-0.002,0.025,101.0,103.0,98.0,13.4,1505.2,327.5,-0.7,1.8,2470.331,13.3,0.084,91.4
2019-10-24T00:13:07,42.805,6.029,0.064,-0.012,0.027,100.0,104.0,98.0,13.4,1505.3,325.1,-0.7,1.8,2470.242,13.31,0.065,100.6
2019-10-24T00:16:08,42.805,6.029,0.019,-0.004,-0.022,100.0,102.0,99.0,13.3,1505.3,323.2,-0.7,1.8,2470.146,13.31,0.019,101.9
2019-10-24T00:19:09,42.805,6.029,0.035,0.002,-0.018,101.0,106.0,99.0,13.3,1505.3,324.4,-0.7,1.8,2470.124,13.32,0.035,86.7
2019-10-24T00:22:10,42.805,6.029,0.073,0.0,-0.009,101.0,105.0,98.0,13.4,1505.3,325.3,-0.7,1.8,2470.02,13.32,0.072,90.0
2019-10-24T00:25:11,42.805,6.029,0.048,-0.021,-0.028,99.0,102.0,98.0,13.4,1505.3,327.1,-0.7,1.8,2469.979,13.32,0.052,113.6
2019-10-24T00:28:12,42.805,6.029,0.029,-0.011,-0.024,100.0,102.0,98.0,13.4,1505.3,327.8,-0.7,1.8,2469.991,13.32,0.031,110.8
2019-10-24T00:31:13,42.805,6.029,0.043,-0.008,-0.048,100.0,104.0,99.0,13.3,1505.3,326.9,-0.7,1.8,2469.971,13.32,0.043,100.5
2019-10-24T00:34:14,42.805,6.029,0.052,-0.017,-0.013,100.0,103.0,100.0,13.4,1505.3,328.0,-0.7,1.8,2469.944,13.32,0.054,108.1
2019-10-24T00:37:15,42.805,6.029,0.06,0.012,0.005,102.0,104.0,98.0,13.4,1505.3,323.3,-0.7,1.8,2469.98,13.32,0.061,78.7
2019-10-24T00:40:16,42.805,6.029,0.056,0.0,-0.012,100.0,103.0,99.0,13.4,1505.3,325.5,-0.7,1.8,2469.96,13.32,0.056,90.0
2019-10-24T00:43:17,42.805,6.029,0.035,-0.005,-0.01,99.0,103.0,98.0,13.4,1505.3,324.8,-0.7,1.8,2469.936,13.32,0.035,98.1
2019-10-24T00:46:18,42.805,6.029,0.048,0.01,-0.032,101.0,105.0,98.0,13.4,1505.3,324.4,-0.7,1.8,2469.956,13.32,0.049,78.2
2019-10-24T00:49:19,42.805,6.029,0.05,-0.006,-0.033,101.0,104.0,99.0,13.4,1505.3,327.1,-0.7,1.9,2469.946,13.32,0.05,96.8
2019-10-24T00:52:20,42.805,6.029,0.057,0.004,-0.031,99.0,103.0,98.0,13.4,1505.3,326.6,-0.7,1.8,2469.922,13.32,0.057,86.0
2019-10-24T00:55:21,42.805,6.029,0.078,0.0,0.008,101.0,103.0,98.0,13.4,1505.3,325.2,-0.7,1.8,2469.924,13.32,0.077,90.0
2019-10-24T00:58:22,42.805,6.029,0.039,-0.002,-0.027,100.0,106.0,99.0,13.4,1505.3,327.0,-0.7,1.9,2469.952,13.32,0.039,92.9
2019-10-24T01:01:23,42.805,6.029,0.069,-0.002,0.008,99.0,104.0,98.0,13.4,1505.3,328.2,-0.7,1.8,2469.974,13.32,0.069,91.7
2019-10-24T01:04:24,42.805,6.029,0.041,0.01,-0.021,101.0,104.0,98.0,13.4,1505.3,323.0,-0.7,1.9,2469.913,13.32,0.042,76.3
2019-10-24T01:07:25,42.805,6.029,0.058,-0.003,-0.024,100.0,105.0,99.0,13.3,1505.3,325.5,-0.7,1.8,2469.981,13.32,0.058,93.0
2019-10-24T01:10:26,42.805,6.029,0.039,-0.004,-0.012,98.0,103.0,98.0,13.4,1505.3,325.8,-0.7,1.8,2469.944,13.32,0.039,95.9
2019-10-24T01:13:27,42.805,6.029,0.125,0.0,0.023,100.0,103.0,98.0,13.3,1505.3,324.8,-0.7,1.8,2469.962,13.32,0.125,90.0
2019-10-24T01:16:28,42.805,6.029,0.059,0.0,-0.002,100.0,104.0,99.0,13.4,1505.3,328.0,-0.7,1.8,2469.953,13.32,0.058,90.0
2019-10-24T01:19:29,42.805,6.029,0.078,0.003,-0.012,100.0,103.0,98.0,13.3,1505.3,324.2,-0.7,1.8,2469.939,13.32,0.078,87.8
2019-10-24T01:22:30,42.805,6.029,0.044,0.004,0.005,100.0,102.0,98.0,13.4,1505.3,326.7,-0.7,1.8,2469.956,13.32,0.044,84.8
2019-10-24T01:25:31,42.805,6.029,0.056,0.007,0.012,100.0,104.0,98.0,13.4,1505.3,325.2,-0.7,1.8,2469.961,13.32,0.056,82.9
2019-10-24T01:28:32,42.805,6.029,0.044,0.003,0.02,100.0,104.0,98.0,13.4,1505.3,328.2,-0.7,1.9,2469.981,13.32,0.044,86.1
2019-10-24T01:31:33,42.805,6.029,0.044,-0.026,-0.005,101.0,102.0,98.0,13.4,1505.3,323.7,-0.7,1.8,2469.977,13.32,0.051,120.6
2019-10-24T01:34:34,42.805,6.029,0.056,0.005,0.03,100.0,104.0,98.0,13.4,1505.3,324.9,-0.7,1.8,2469.953,13.32,0.056,84.9
2019-10-24T01:37:35,42.805,6.029,0.065,-0.014,0.011,101.0,102.0,99.0,13.3,1505.3,324.7,-0.7,1.8,2469.978,13.32,0.066,102.2
2019-10-24T01:40:36,42.805,6.029,0.033,0.007,-0.01,100.0,104.0,99.0,13.3,1505.3,325.3,-0.7,1.9,2469.971,13.32,0.033,78.0
2019-10-24T01:43:37,42.805,6.029,0.084,-0.008,0.018,99.0,103.0,99.0,13.3,1505.3,328.1,-0.7,1.8,2469.972,13.32,0.084,95.4
2019-10-24T01:46:38,42.805,6.029,0.066,-0.014,0.028,100.0,104.0,99.0,13.3,1505.3,323.3,-0.7,1.8,2470.032,13.32,0.067,102.0
2019-10-24T01:49:39,42.805,6.029,0.072,-0.018,-0.013,100.0,105.0,98.0,13.4,1505.3,327.1,-0.7,1.9,2469.959,13.32,0.074,104.0
2019-10-24T01:52:40,42.805,6.029,0.067,-0.004,-0.017,101.0,103.0,98.0,13.3,1505.3,325.1,-0.7,1.8,2470.031,13.32,0.067,93.4
2019-10-24T01:55:41,42.805,6.029,0.025,0.008,-0.018,101.0,104.0,98.0,13.4,1505.3,327.9,-0.7,1.9,2469.99,13.32,0.026,72.3
2019-10-24T01:58:42,42.805,6.029,0.047,-0.007,-0.005,101.0,104.0,98.0,13.4,1505.3,327.7,-0.7,1.8,2469.987,13.32,0.047,98.5
2019-10-24T02:01:43,42.805,6.029,0.059,0.003,-0.019,101.0,102.0,98.0,13.4,1505.3,327.0,-0.7,1.8,2470.004,13.32,0.059,87.1
2019-10-24T02:04:44,42.805,6.029,0.048,-0.025,-0.045,101.0,102.0,98.0,13.4,1505.3,326.0,-0.8,1.8,2469.999,13.32,0.054,117.5
2019-10-24T02:07:45,42.805,6.029,0.064,-0.008,0.042,101.0,103.0,99.0,13.3,1505.3,326.7,-0.7,1.8,2469.993,13.32,0.064,97.1
2019-10-24T02:10:46,42.805,6.029,0.036,-0.008,-0.033,100.0,104.0,98.0,13.3,1505.3,324.3,-0.7,1.8,2470.005,13.32,0.036,102.5
2019-10-24T02:13:47,42.805,6.029,0.095,0.004,0.021,100.0,105.0,98.0,13.4,1505.3,325.0,-0.7,1.8,2470.017,13.32,0.095,87.6
2019-10-24T02:16:48,42.805,6.029,0.046,0.0,0.014,101.0,104.0,98.0,13.4,1505.3,324.6,-0.7,1.8,2470.028,13.32,0.046,90.0
2019-10-24T02:19:49,42.805,6.029,0.069,-0.001,-0.003,102.0,105.0,98.0,13.3,1505.3,325.8,-0.7,1.8,2470.048,13.32,0.069,90.8
2019-10-24T02:22:50,42.805,6.029,0.069,-0.011,-0.002,100.0,103.0,98.0,13.4,1505.3,324.8,-0.7,1.8,2469.986,13.32,0.069,99.1
2019-10-24T02:25:51,42.805,6.029,0.075,0.002,0.038,102.0,102.0,98.0,13.3,1505.3,328.3,-0.7,1.9,2470.021,13.32,0.075,88.5
2019-10-24T02:28:52,42.805,6.029,0.071,0.001,-0.004,101.0,104.0,98.0,13.4,1505.3,324.8,-0.7,1.9,2470.018,13.32,0.071,89.2
2019-10-24T02:31:53,42.805,6.029,0.068,-0.008,0.003,101.0,104.0,98.0,13.4,1505.3,324.3,-0.7,1.8,2470.033,13.32,0.068,96.7
2019-10-24T02:34:54,42.805,6.029,0.062,0.014,0.012,101.0,103.0,98.0,13.3,1505.3,324.0,-0.7,1.8,2470.001,13.32,0.063,77.3
2019-10-24T02:37:55,42.805,6.029,0.057,0.004,0.001,101.0,103.0,97.0,13.4,1505.3,326.5,-0.7,1.8,2470.038,13.32,0.057,86.0
2019-10-24T02:40:56,42.805,6.029,0.083,-0.024,-0.017,100.0,104.0,98.0,13.4,1505.3,325.0,-0.7,1.8,2470.048,13.32,0.086,106.1
2019-10-24T02:43:57,42.805,6.029,0.045,-0.018,-0.025,100.0,103.0,97.0,13.4,1505.3,327.4,-0.7,1.9,2470.042,13.32,0.048,111.8
2019-10-24T02:46:58,42.805,6.029,0.07,-0.016,-0.029,101.0,102.0,98.0,13.4,1505.3,325.5,-0.7,1.8,2470.079,13.32,0.071,102.9
2019-10-24T02:49:59,42.805,6.029,0.078,0.0,0.0,100.0,102.0,98.0,13.4,1505.3,324.7,-0.7,1.8,2470.037,13.32,0.077,90.0
2019-10-24T02:53:00,42.805,6.029,0.075,0.011,-0.02,99.0,104.0,99.0,13.3,1505.3,324.6,-0.7,1.8,2470.068,13.32,0.075,81.7
2019-10-24T02:56:01,42.805,6.029,0.068,-0.006,0.002,100.0,103.0,99.0,13.4,1505.3,325.4,-0.7,1.8,2470.042,13.32,0.068,95.0
2019-10-24T02:59:02,42.805,6.029,0.056,0.007,-0.009,100.0,104.0,98.0,13.4,1505.3,322.9,-0.7,1.8,2470.008,13.32,0.056,82.9
2019-10-24T03:02:03,42.805,6.029,0.035,0.0,-0.014,100.0,105.0,98.0,13.4,1505.3,324.5,-0.7,1.9,2470.052,13.32,0.035,90.0
2019-10-24T03:05:04,42.805,6.029,0.028,0.004,-0.035,102.0,105.0,98.0,13.3,1505.3,323.1,-0.7,1.8,2470.081,13.32,0.028,81.9
2019-10-24T03:08:05,42.805,6.029,0.02,0.006,-0.035,100.0,105.0,98.0,13.4,1505.3,325.0,-0.7,1.8,2470.029,13.32,0.02,73.3
2019-10-24T03:11:06,42.805,6.029,0.051,0.0,0.0,102.0,106.0,100.0,13.4,1505.3,326.3,-0.7,1.8,2470.063,13.32,0.051,90.0
2019-10-24T03:14:07,42.805,6.029,0.042,-0.007,-0.034,100.0,104.0,99.0,13.4,1505.3,324.6,-0.7,1.8,2470.064,13.32,0.042,99.5
2019-10-24T03:17:08,42.805,6.029,0.028,0.0,-0.001,100.0,105.0,98.0,13.4,1505.3,328.4,-0.7,1.8,2470.015,13.32,0.028,90.0
2019-10-24T03:20:09,42.805,6.029,0.066,-0.015,-0.013,101.0,103.0,99.0,13.4,1505.3,325.0,-0.7,1.8,2470.016,13.32,0.067,102.8
2019-10-24T03:23:10,42.805,6.029,0.043,0.002,-0.01,99.0,105.0,99.0,13.3,1505.3,326.9,-0.7,1.8,2470.048,13.32,0.043,87.3
2019-10-24T03:26:11,42.805,6.029,0.05,-0.008,-0.019,99.0,104.0,99.0,13.4,1505.3,327.5,-0.7,1.9,2470.082,13.32,0.05,99.1
2019-10-24T03:29:12,42.805,6.029,0.058,0.0,-0.027,100.0,105.0,97.0,13.4,1505.3,327.8,-0.7,1.8,2470.098,13.32,0.057,90.0
2019-10-24T03:32:13,42.805,6.029,0.036,-0.003,0.001,102.0,105.0,98.0,13.4,1505.3,326.5,-0.7,1.8,2470.045,13.32,0.036,94.8
2019-10-24T03:35:14,42.805,6.029,0.029,0.001,-0.011,100.0,104.0,98.0,13.4,1505.3,325.6,-0.7,1.8,2470.028,13.32,0.029,88.0
2019-10-24T03:38:15,42.805,6.029,0.071,0.012,-0.007,100.0,104.0,98.0,13.4,1505.3,324.3,-0.7,1.8,2470.078,13.32,0.072,80.4
2019-10-24T03:41:16,42.805,6.029,0.053,-0.03,-0.034,100.0,104.0,97.0,13.3,1505.3,326.8,-0.7,1.8,2470.034,13.32,0.06,119.5
2019-10-24T03:44:17,42.805,6.029,0.055,-0.017,0.01,100.0,105.0,99.0,13.3,1505.3,325.7,-0.7,1.8,2470.075,13.32,0.057,107.2
2019-10-24T03:47:18,42.805,6.029,0.017,-0.005,-0.051,100.0,105.0,98.0,13.3,1505.3,324.8,-0.7,1.8,2470.053,13.32,0.017,106.4
2019-10-24T03:50:19,42.805,6.029,0.045,-0.004,-0.018,100.0,105.0,99.0,13.3,1505.3,327.0,-0.7,1.8,2470.101,13.32,0.045,95.1
2019-10-24T03:53:20,42.805,6.029,0.061,-0.025,-0.023,100.0,104.0,99.0,13.4,1505.3,325.8,-0.7,1.8,2470.039,13.32,0.065,112.3
2019-10-24T03:56:21,42.805,6.029,0.026,-0.019,-0.021,101.0,104.0,98.0,13.4,1505.3,327.1,-0.7,1.9,2470.04,13.32,0.032,126.2
2019-10-24T03:59:22,42.805,6.029,0.063,-0.024,-0.02,100.0,104.0,98.0,13.4,1505.3,325.6,-0.7,1.8,2470.035,13.32,0.067,110.9
2019-10-24T04:02:23,42.805,6.029,0.042,0.009,-0.016,101.0,104.0,98.0,13.4,1505.3,323.5,-0.7,1.8,2470.062,13.32,0.042,77.9
2019-10-24T04:05:24,42.805,6.029,0.053,-0.006,-0.051,100.0,104.0,98.0,13.4,1505.3,327.2,-0.7,1.8,2470.071,13.32,0.053,96.5
2019-10-24T04:08:25,42.805,6.029,0.044,0.003,-0.017,99.0,104.0,98.0,13.4,1505.3,325.5,-0.7,1.8,2470.035,13.32,0.044,86.1
2019-10-24T04:11:26,42.805,6.029,0.039,-0.029,-0.033,100.0,104.0,98.0,13.4,1505.3,325.0,-0.7,1.8,2470.037,13.32,0.048,126.6
2019-10-24T04:14:27,42.805,6.029,0.031,-0.003,-0.048,101.0,104.0,98.0,13.4,1505.3,325.8,-0.7,1.8,2470.033,13.32,0.031,95.5
2019-10-24T04:17:28,42.805,6.029,0.014,-0.005,-0.032,100.0,104.0,99.0,13.4,1505.3,324.6,-0.7,1.8,2470.014,13.32,0.014,109.6
2019-10-24T04:20:29,42.805,6.029,0.03,-0.015,-0.034,101.0,106.0,99.0,13.4,1505.3,328.2,-0.7,1.8,2470.046,13.33,0.033,116.6
2019-10-24T04:23:30,42.805,6.029,0.04,-0.012,-0.003,101.0,103.0,97.0,13.3,1505.3,323.5,-0.7,1.8,2470.024,13.33,0.041,106.7
2019-10-24T04:26:31,42.805,6.029,0.033,-0.012,-0.007,100.0,104.0,98.0,13.4,1505.3,325.0,-0.7,1.8,2470.072,13.32,0.035,110.0
2019-10-24T04:29:32,42.805,6.029,0.022,0.0,-0.026,100.0,105.0,97.0,13.4,1505.3,326.2,-0.8,1.8,2470.023,13.32,0.022,90.0
2019-10-24T04:32:33,42.805,6.029,0.035,0.004,-0.005,99.0,104.0,99.0,13.4,1505.3,326.6,-0.7,1.9,2470.014,13.32,0.035,83.5
2019-10-24T04:35:34,42.805,6.029,0.044,0.014,-0.013,99.0,103.0,98.0,13.4,1505.3,324.5,-0.7,1.9,2470.035,13.32,0.046,72.4
2019-10-24T04:38:35,42.805,6.029,0.057,0.0,-0.029,99.0,104.0,98.0,13.4,1505.3,324.0,-0.7,1.8,2470.048,13.32,0.057,90.0
2019-10-24T04:41:36,42.805,6.029,0.04,-0.004,-0.003,99.0,104.0,98.0,13.4,1505.3,324.9,-0.7,1.9,2470.038,13.32,0.04,95.7
2019-10-24T04:44:37,42.805,6.029,0.055,0.006,-0.018,100.0,104.0,98.0,13.4,1505.3,327.0,-0.7,1.8,2470.085,13.32,0.055,83.8
2019-10-24T04:47:38,42.805,6.029,-0.001,0.007,-0.009,101.0,104.0,98.0,13.4,1505.3,325.7,-0.7,1.8,2470.041,13.33,0.007,351.9
2019-10-24T04:50:39,42.805,6.029,0.057,-0.014,-0.011,100.0,104.0,99.0,13.4,1505.3,325.0,-0.7,1.8,2470.044,13.33,0.058,103.8
2019-10-24T04:53:40,42.805,6.029,0.025,-0.016,-0.044,101.0,104.0,98.0,13.4,1505.3,323.4,-0.7,1.8,2469.98,13.33,0.029,122.6
2019-10-24T04:56:41,42.805,6.029,-0.009,-0.007,-0.113,101.0,104.0,98.0,13.4,1505.3,328.1,-0.7,1.8,2470.016,13.33,0.011,232.1
2019-10-24T04:59:42,42.805,6.029,0.037,-0.006,-0.046,101.0,104.0,98.0,13.3,1505.3,324.9,-0.7,1.9,2470.034,13.33,0.037,99.2
2019-10-24T05:02:43,42.805,6.029,0.042,0.001,0.004,99.0,104.0,98.0,13.4,1505.3,325.1,-0.7,1.8,2470.043,13.33,0.042,88.6
2019-10-24T05:05:44,42.805,6.029,0.033,-0.001,-0.03,100.0,105.0,97.0,13.4,1505.3,323.6,-0.7,1.8,2470.028,13.32,0.033,91.7
2019-10-24T05:08:45,42.805,6.029,0.048,-0.01,-0.011,99.0,105.0,98.0,13.4,1505.3,327.1,-0.7,1.8,2470.032,13.33,0.049,101.8
2019-10-24T05:11:46,42.805,6.029,-0.003,-0.025,-0.053,100.0,105.0,97.0,13.3,1505.3,328.2,-0.7,1.9,2470.009,13.33,0.025,186.8
2019-10-24T05:14:47,42.805,6.029,0.004,-0.007,-0.033,98.0,106.0,98.0,13.4,1505.3,326.3,-0.7,1.9,2470.048,13.32,0.008,150.3
2019-10-24T05:17:48,42.805,6.029,0.01,0.0,-0.013,99.0,105.0,98.0,13.3,1505.3,324.8,-0.7,1.9,2470.094,13.33,0.01,90.0
2019-10-24T05:20:49,42.805,6.029,0.058,-0.021,-0.011,101.0,106.0,99.0,13.4,1505.3,326.4,-0.7,1.8,2470.04,13.33,0.061,109.9
2019-10-24T05:23:50,42.805,6.029,0.051,-0.005,-0.001,100.0,103.0,99.0,13.3,1505.3,326.8,-0.7,1.8,2470.009,13.33,0.051,95.6
2019-10-24T05:26:51,42.805,6.029,0.009,0.0,-0.041,101.0,106.0,98.0,13.4,1505.3,326.8,-0.7,1.8,2469.987,13.33,0.009,90.0
2019-10-24T05:29:52,42.805,6.029,-0.004,-0.019,-0.048,102.0,105.0,97.0,13.3,1505.3,327.1,-0.7,1.8,2470.012,13.33,0.019,191.9
2019-10-24T05:32:53,42.805,6.029,-0.004,-0.011,-0.055,101.0,106.0,97.0,13.4,1505.3,325.1,-0.7,1.9,2470.055,13.33,0.011,200.0
2019-10-24T05:35:54,42.805,6.029,0.014,0.013,-0.021,99.0,105.0,99.0,13.4,1505.3,328.1,-0.7,1.8,2470.037,13.33,0.019,47.1
2019-10-24T05:38:55,42.805,6.029,0.022,-0.032,-0.033,102.0,104.0,99.0,13.3,1505.3,328.2,-0.8,1.9,2470.04,13.33,0.038,145.5
2019-10-24T05:41:56,42.805,6.029,0.035,-0.009,-0.04,99.0,105.0,98.0,13.3,1505.3,327.0,-0.7,1.8,2470.072,13.33,0.036,104.4
2019-10-24T05:44:57,42.805,6.029,0.005,-0.003,-0.076,101.0,104.0,99.0,13.4,1505.3,324.5,-0.7,1.8,2470.017,13.32,0.005,121.0
2019-10-24T05:47:58,42.805,6.029,0.041,-0.002,-0.01,100.0,104.0,98.0,13.3,1505.3,325.1,-0.7,1.8,2470.082,13.32,0.041,92.8
2019-10-24T05:50:59,42.805,6.029,0.023,0.005,-0.012,99.0,105.0,99.0,13.4,1505.3,326.3,-0.7,1.8,2470.011,13.33,0.023,77.7
2019-10-24T05:54:00,42.805,6.029,0.042,-0.001,-0.009,100.0,104.0,99.0,13.4,1505.3,324.9,-0.7,1.8,2470.021,13.33,0.042,91.4
2019-10-24T05:57:01,42.805,6.029,0.013,-0.006,-0.031,101.0,103.0,99.0,13.4,1505.3,324.5,-0.8,1.8,2470.013,13.33,0.014,114.8
2019-10-24T06:00:02,42.805,6.029,0.037,-0.011,-0.036,100.0,104.0,98.0,13.4,1505.3,327.8,-0.7,1.8,2470.016,13.33,0.038,106.6
2019-10-24T06:03:03,42.805,6.029,0.024,-0.012,-0.068,100.0,104.0,98.0,13.4,1505.3,326.1,-0.7,1.8,2470.045,13.33,0.026,116.6
2019-10-24T06:06:04,42.805,6.029,-0.002,-0.001,-0.05,100.0,106.0,98.0,13.4,1505.3,328.2,-0.7,1.8,2470.031,13.33,0.002,243.4
2019-10-24T06:09:05,42.805,6.029,0.015,0.019,-0.028,100.0,104.0,98.0,13.3,1505.3,326.5,-0.7,1.8,2470.009,13.33,0.024,38.3
2019-10-24T06:12:06,42.805,6.029,0.037,0.01,-0.015,99.0,105.0,99.0,13.4,1505.3,327.4,-0.7,1.8,2470.055,13.33,0.038,74.9
2019-10-24T06:15:07,42.805,6.029,0.033,-0.01,-0.044,101.0,104.0,98.0,13.4,1505.3,326.0,-0.7,1.8,2470.039,13.33,0.034,106.9
2019-10-24T06:18:08,42.805,6.029,0.004,-0.007,-0.033,100.0,106.0,98.0,13.4,1505.3,327.8,-0.7,1.8,2470.034,13.32,0.008,150.3
2019-10-24T06:21:09,42.805,6.029,-0.001,0.004,-0.04,99.0,106.0,99.0,13.4,1505.3,323.5,-0.7,1.8,2470.064,13.32,0.004,346.0
2019-10-24T06:24:10,42.805,6.029,0.04,-0.01,-0.039,100.0,104.0,99.0,13.4,1505.3,325.1,-0.7,1.8,2470.01,13.32,0.041,104.0
2019-10-24T06:27:11,42.805,6.029,0.026,-0.002,-0.029,100.0,104.0,98.0,13.4,1505.3,323.9,-0.7,1.8,2470.028,13.32,0.026,94.4
2019-10-24T06:30:12,42.805,6.029,0.014,-0.017,-0.008,100.0,105.0,99.0,13.4,1505.3,325.0,-0.7,1.8,2470.02,13.32,0.022,140.5
2019-10-24T06:33:13,42.805,6.029,0.022,-0.02,-0.035,100.0,104.0,98.0,13.4,1505.3,323.8,-0.8,1.8,2470.04,13.32,0.029,132.3
2019-10-24T06:36:14,42.805,6.029,0.045,-0.004,-0.037,100.0,106.0,98.0,13.3,1505.3,328.3,-0.7,1.8,2470.053,13.32,0.045,95.1
2019-10-24T06:39:15,42.805,6.029,0.066,-0.001,0.009,101.0,105.0,98.0,13.4,1505.3,326.8,-0.7,1.8,2470.034,13.32,0.066,90.9
2019-10-24T06:42:16,42.805,6.029,0.057,0.011,0.005,101.0,105.0,98.0,13.4,1505.3,325.0,-0.7,1.8,2470.006,13.32,0.058,79.1
2019-10-24T06:45:17,42.805,6.029,0.022,0.0,-0.068,99.0,105.0,99.0,13.4,1505.3,326.9,-0.7,1.9,2470.025,13.32,0.022,90.0
2019-10-24T06:48:18,42.805,6.029,0.002,0.003,-0.034,99.0,105.0,99.0,13.4,1505.3,323.3,-0.7,1.8,2470.015,13.33,0.003,33.7
2019-10-24T06:51:19,42.805,6.029,0.042,-0.002,-0.012,100.0,104.0,99.0,13.4,1505.3,325.2,-0.7,1.9,2470.017,13.33,0.042,92.7
2019-10-24T06:54:20,42.805,6.029,0.042,-0.003,-0.015,100.0,104.0,99.0,13.3,1505.3,326.0,-0.7,1.8,2470.024,13.33,0.042,94.1
2019-10-24T06:57:21,42.805,6.029,0.064,-0.002,0.002,103.0,104.0,99.0,13.4,1505.3,325.4,-0.7,1.9,2470.042,13.32,0.064,91.8
2019-10-24T07:00:22,42.805,6.029,0.032,-0.011,-0.037,99.0,104.0,99.0,13.3,1505.3,326.9,-0.7,1.8,2470.038,13.32,0.033,109.0
2019-10-24T07:03:23,42.805,6.029,0.007,-0.003,-0.067,99.0,106.0,98.0,13.4,1505.3,327.3,-0.8,1.8,2470.044,13.33,0.007,113.2
2019-10-24T07:06:24,42.805,6.029,0.042,-0.011,-0.029,101.0,106.0,98.0,13.3,1505.3,326.8,-0.7,1.9,2470.048,13.33,0.043,104.7
2019-10-24T07:09:25,42.805,6.029,0.031,-0.012,-0.035,101.0,104.0,99.0,13.4,1505.3,327.1,-0.7,1.9,2470.047,13.33,0.033,111.2
2019-10-24T07:12:26,42.805,6.029,0.002,-0.006,-0.061,100.0,105.0,98.0,13.3,1505.3,324.1,-0.7,1.9,2470.004,13.33,0.006,161.6
2019-10-24T07:15:27,42.805,6.029,0.019,0.006,-0.036,102.0,105.0,98.0,13.4,1505.3,324.4,-0.7,1.8,2469.992,13.33,0.019,72.5
2019-10-24T07:18:28,42.805,6.029,0.042,-0.009,-0.014,100.0,105.0,97.0,13.4,1505.3,324.3,-0.7,1.8,2470.018,13.33,0.042,102.1
2019-10-24T07:21:29,42.805,6.029,0.052,-0.013,0.003,99.0,106.0,99.0,13.3,1505.3,324.5,-0.8,1.9,2470.035,13.33,0.053,104.0
2019-10-24T07:24:30,42.805,6.029,0.016,-0.028,-0.054,100.0,106.0,98.0,13.4,1505.3,324.7,-0.7,1.8,2470.04,13.32,0.032,150.3
2019-10-24T07:27:31,42.805,6.029,0.003,-0.012,-0.036,99.0,106.0,98.0,13.4,1505.3,324.7,-0.7,1.8,2470.029,13.33,0.012,166.0
2019-10-24T07:30:32,42.805,6.029,0.031,0.003,-0.016,101.0,105.0,99.0,13.3,1505.3,323.9,-0.7,1.8,2470.043,13.33,0.031,84.5
2019-10-24T07:33:33,42.805,6.029,0.013,0.006,-0.031,101.0,105.0,98.0,13.4,1505.3,325.8,-0.7,1.8,2470.001,13.32,0.014,65.2
2019-10-24T07:36:34,42.805,6.029,0.043,-0.012,-0.05,102.0,104.0,99.0,13.4,1505.3,324.0,-0.7,1.8,2470.004,13.33,0.044,105.6
2019-10-24T07:39:35,42.805,6.029,0.027,-0.01,-0.036,101.0,105.0,99.0,13.3,1505.3,325.6,-0.7,1.9,2470.014,13.32,0.028,110.3
2019-10-24T07:42:36,42.805,6.029,0.015,-0.02,-0.045,101.0,106.0,98.0,13.4,1505.3,323.2,-0.7,1.8,2470.002,13.33,0.025,143.1
2019-10-24T07:45:37,42.805,6.029,0.045,-0.006,-0.031,101.0,105.0,98.0,13.3,1505.3,325.8,-0.7,1.8,2469.974,13.33,0.045,97.6
2019-10-24T07:48:38,42.805,6.029,0.073,-0.021,-0.01,101.0,104.0,98.0,13.3,1505.3,324.9,-0.7,1.8,2470.005,13.32,0.075,106.0
2019-10-24T07:51:39,42.805,6.029,0.046,0.01,-0.064,101.0,105.0,98.0,13.4,1505.3,328.2,-0.7,1.8,2470.006,13.32,0.047,77.7
2019-10-24T07:54:40,42.805,6.029,0.035,0.0,-0.026,101.0,105.0,98.0,13.4,1505.3,327.2,-0.7,1.8,2470.053,13.32,0.035,90.0
2019-10-24T07:57:41,42.805,6.029,0.043,0.001,-0.052,99.0,103.0,98.0,13.3,1505.3,327.1,-0.7,1.8,2469.993,13.32,0.043,88.7
2019-10-24T08:00:42,42.805,6.029,0.033,-0.009,-0.014,101.0,102.0,98.0,13.4,1505.3,325.8,-0.7,1.8,2470.02,13.32,0.034,105.3
2019-10-24T08:03:43,42.805,6.029,0.041,-0.018,-0.024,100.0,103.0,98.0,13.3,1505.3,327.1,-0.7,1.8,2469.977,13.32,0.044,113.7
2019-10-24T08:06:44,42.805,6.029,0.041,-0.006,-0.001,100.0,105.0,98.0,13.4,1505.3,324.6,-0.7,1.9,2469.995,13.32,0.041,98.3
2019-10-24T08:09:45,42.805,6.029,0.047,0.006,-0.038,100.0,105.0,98.0,13.4,1505.3,324.7,-0.7,1.8,2470.026,13.32,0.047,82.7
2019-10-24T08:12:46,42.805,6.029,0.023,-0.001,-0.025,99.0,105.0,100.0,13.3,1505.3,327.0,-0.7,1.8,2469.98,13.32,0.023,92.5
2019-10-24T08:15:47,42.805,6.029,0.039,-0.012,-0.03,101.0,104.0,98.0,13.4,1505.3,324.1,-0.7,1.8,2469.989,13.32,0.04,107.1
2019-10-24T08:18:48,42.805,6.029,0.061,-0.023,-0.025,100.0,104.0,98.0,13.4,1505.3,327.0,-0.7,1.8,2469.993,13.32,0.065,110.7
2019-10-24T08:21:49,42.805,6.029,0.066,0.015,-0.013,100.0,103.0,98.0,13.4,1505.3,324.1,-0.7,1.8,2469.987,13.32,0.067,77.2
2019-10-24T08:24:50,42.805,6.029,0.063,-0.003,-0.009,100.0,103.0,98.0,13.4,1505.3,327.5,-0.7,1.8,2469.991,13.32,0.063,92.7
2019-10-24T08:27:51,42.805,6.029,0.094,0.0,0.023,100.0,104.0,99.0,13.3,1505.3,327.8,-0.7,1.8,2469.973,13.32,0.094,90.0
2019-10-24T08:30:52,42.805,6.029,0.009,-0.005,-0.031,100.0,104.0,99.0,13.4,1505.3,325.8,-0.7,1.8,2469.935,13.32,0.01,119.1
2019-10-24T08:33:53,42.805,6.029,0.03,0.006,-0.063,98.0,105.0,99.0,13.3,1505.3,328.1,-0.7,1.8,2469.998,13.32,0.03,78.7
2019-10-24T08:36:54,42.805,6.029,0.032,0.002,-0.035,100.0,105.0,99.0,13.4,1505.3,325.0,-0.7,1.9,2469.965,13.32,0.032,86.4
2019-10-24T08:39:55,42.805,6.029,0.048,-0.015,-0.008,100.0,103.0,98.0,13.3,1505.3,327.2,-0.7,1.8,2469.944,13.32,0.05,107.4
2019-10-24T08:42:56,42.805,6.029,0.028,-0.008,-0.023,100.0,105.0,99.0,13.4,1505.3,325.9,-0.7,1.9,2469.936,13.32,0.029,105.9
2019-10-24T08:45:57,42.805,6.029,0.031,-0.005,-0.022,100.0,106.0,99.0,13.3,1505.3,324.7,-0.7,1.8,2469.997,13.32,0.031,99.2
2019-10-24T08:48:58,42.805,6.029,0.069,0.023,0.015,100.0,105.0,97.0,13.4,1505.3,325.2,-0.7,1.8,2470.001,13.32,0.072,71.6
2019-10-24T08:51:59,42.805,6.029,0.069,-0.024,0.017,100.0,104.0,98.0,13.4,1505.3,324.5,-0.8,1.8,2469.934,13.32,0.073,109.2
2019-10-24T08:55:00,42.805,6.029,0.074,-0.006,0.005,100.0,104.0,98.0,13.4,1505.3,324.5,-0.7,1.8,2469.985,13.32,0.074,94.6
2019-10-24T08:58:01,42.805,6.029,0.062,0.001,0.003,101.0,103.0,98.0,13.4,1505.3,325.1,-0.7,1.8,2469.969,13.32,0.062,89.1
2019-10-24T09:01:02,42.805,6.029,0.05,-0.023,0.0,100.0,103.0,97.0,13.4,1505.3,325.3,-0.7,1.8,2469.988,13.32,0.055,114.7
2019-10-24T09:04:03,42.805,6.029,0.02,-0.002,-0.001,100.0,103.0,98.0,13.4,1505.3,324.9,-0.7,1.8,2469.969,13.32,0.02,95.7
2019-10-24T09:07:04,42.805,6.029,0.042,-0.008,0.003,100.0,104.0,99.0,13.4,1505.3,324.9,-0.7,1.8,2469.96,13.32,0.042,100.8
2019-10-24T09:10:05,42.805,6.029,0.078,-0.004,0.0,101.0,105.0,99.0,13.3,1505.3,324.4,-0.7,1.8,2469.979,13.32,0.078,92.9
2019-10-24T09:13:06,42.805,6.029,0.081,0.0,0.016,102.0,105.0,97.0,13.4,1505.3,326.9,-0.7,1.8,2470.004,13.32,0.08,90.0
2019-10-24T09:16:07,42.805,6.029,0.048,-0.004,-0.008,101.0,103.0,99.0,13.3,1505.3,325.8,-0.7,1.8,2469.939,13.32,0.048,94.8
2019-10-24T09:19:08,42.805,6.029,0.073,-0.029,0.011,99.0,104.0,99.0,13.4,1505.3,326.5,-0.7,1.8,2469.973,13.32,0.078,111.7
2019-10-24T09:22:09,42.805,6.029,0.034,0.004,0.005,101.0,103.0,98.0,13.3,1505.3,325.0,-0.7,1.9,2469.979,13.32,0.034,83.3
2019-10-24T09:25:10,42.805,6.029,0.04,-0.011,-0.02,101.0,104.0,97.0,13.3,1505.3,325.8,-0.7,1.8,2469.948,13.32,0.041,105.4
2019-10-24T09:28:11,42.805,6.029,0.052,-0.004,-0.003,100.0,102.0,98.0,13.4,1505.3,326.4,-0.7,1.8,2469.964,13.32,0.052,94.4
2019-10-24T09:31:12,42.805,6.029,0.052,-0.013,-0.026,101.0,102.0,99.0,13.4,1505.3,324.9,-0.7,1.8,2469.953,13.32,0.053,104.0
2019-10-24T09:34:13,42.805,6.029,0.06,-0.026,-0.023,99.0,104.0,98.0,13.3,1505.3,326.5,-0.7,1.9,2469.963,13.32,0.065,113.4
2019-10-24T09:37:14,42.805,6.029,0.032,-0.009,-0.014,100.0,105.0,98.0,13.4,1505.3,327.2,-0.7,1.9,2469.981,13.32,0.033,105.7
2019-10-24T09:40:15,42.805,6.029,0.041,0.01,-0.011,100.0,104.0,98.0,13.4,1505.3,325.8,-0.7,1.8,2470.012,13.32,0.042,76.3